Hourly Data Report for October 31, 2020

MUSKOKA
ONTARIO
Current Station Operator: NAVCAN

44°58'29.000" N
79°18'12.000" W
281.90 m
6115529
71532
YQA

Download Data

Hourly Data (October 2020)
Hourly Data Report for October 31, 2020
TIME
LST
Temp Definition
°C
Dew Point Definition
°C
Rel Hum Definition
%
Precip. Amount Definition
mm

Wind Dir Definition
10's deg

Wind Spd Definition
km/h
Visibility Definition
km
Stn Press Definition
kPa
Hmdx Definition


Wind Chill Definition


Weather Definition


00:00 -7.9 -9.0 92 0.0   0 16.1 99.32     LegendNANA
01:00 -8.8 -9.9 92 0.0   0 16.1 99.37     LegendNANA
02:00 -8.9 -9.9 93 0.0 18 4 16.1 99.42   -11 LegendNANA
03:00 -9.5 -10.7 91 0.0   0 16.1 99.43     LegendNANA
04:00 -10.1 -11.3 91 0.0 15 4 16.1 99.47   -12 LegendNANA
05:00 -9.9 -11.1 91 0.0   0 16.1 99.55     LegendNANA
06:00 -10.1 -11.3 91 0.0   0 16.1 99.57     LegendNANA
07:00 -10.0 -11.2 91 0.0   0 16.1 99.57     LegendNANA
08:00 -6.8 -8.0 91 0.0 LegendMM 4 16.1 99.62   -9 LegendNANA
09:00 -2.2 -6.6 72 0.0 14 11 16.1 99.65   -6 LegendNANA
10:00 0.4 -6.1 62 0.0 15 17 16.1 99.59     LegendNANA
11:00 1.7 -5.0 61 0.0 16 17 16.1 99.52     LegendNANA
12:00 2.6 -4.5 60 0.0 16 18 16.1 99.43     LegendNANA
13:00 3.3 -4.9 55 0.0 17 22 16.1 99.33     LegendNANA
14:00 3.9 -5.8 49 0.0 18 21 16.1 99.22     LegendNANA
15:00 3.6 -4.7 55 0.0 16 28 16.1 99.11     LegendNANA
16:00 3.6 -4.4 56 0.0 17 21 16.1 99.00     LegendNANA
17:00 3.0 -4.0 60 0.0 17 15 16.1 98.86     LegendNANA
18:00 2.9 -4.1 60 0.0 17 17 16.1 98.78     LegendNANA
19:00 2.3 -3.2 67 0.0 15 17 16.1 98.68     LegendNANA
20:00 2.5 -2.6 69 0.0 16 22 16.1 98.59     LegendNANA
21:00 1.3 -2.5 76 0.0 15 21 16.1 98.47     LegendNANA
22:00 1.2 -2.2 78 0.0 15 17 16.1 98.32     LegendNANA
23:00 0.8 -1.8 83 0.0 15 22 16.1 98.21     LegendNANA

Notes on Data Quality.

Legend

  • E = Estimated
  • M = Missing
  • NA = Not Available*
  • [empty] = Indicates an unobserved value
Date modified: